Location: Unspecified
(50.0000°N, 15.0000°E)
Time: 01:59:12
(UTC+02:00)

ISS - Pass Details

Date: 26 September 2021
Orbit: 417 x 423 km, 51.6° (Epoch: 24 October)

Event Time Altitude Azimuth Distance (km) Brightness Sun altitude
Rises 19:20:50 0° 266° (W) 2,360 2.4 -5.9°
Reaches altitude 10° 19:22:56 10° 269° (W) 1,498 0.9 -6.3°
Maximum altitude 19:26:17 67° 353° (N) 457 -3.5 -6.8°
Drops below altitude 10° 19:29:38 10° 77° (ENE) 1,503 -1.5 -7.3°
Enters shadow 19:29:52 - 78° (ENE) 1,594 -1.4 -7.4°
